| time (UTC) | temp C | wind direction | speed KPH | gust KPH | rain 1hr cm | rain 24hr cm | rain mn cm | humidity % | barometer mb |
| 20260901033020 | 20 | 214 | 16.1 | 27.4 | 0.00 | 0.00 | 0.00 | 61 | |
| 20260901032028 | 20 | 207 | 14.5 | 19.3 | 0.00 | 0.00 | 0.00 | 60 | |
| 20260901031036 | 21 | 187 | 14.5 | 17.7 | 0.00 | 0.00 | 0.00 | 59 | |
| 20260901030026 | 21 | 213 | 14.5 | 19.3 | 0.00 | 0.00 | 0.00 | 58 | |
| 20260901025054 | 21 | 188 | 16.1 | 20.9 | 0.00 | 0.00 | 0.00 | 56 | |
| 20260901024022 | 22 | 192 | 12.9 | 20.9 | 0.00 | 0.00 | 0.00 | 55 | |
| 20260901023048 | 22 | 208 | 14.5 | 22.5 | 0.00 | 0.00 | 0.00 | 52 | |
| 20260901022019 | 23 | 198 | 14.5 | 19.3 | 0.00 | 0.00 | 0.00 | 51 | |
| 20260901021047 | 23 | 201 | 17.7 | 20.9 | 0.00 | 0.00 | 0.00 | 50 | |
| 20260901020035 | 25 | 216 | 14.5 | 20.9 | 0.00 | 0.00 | 0.00 | 48 | |
| 20260901015026 | 25 | 223 | 16.1 | 20.9 | 0.00 | 0.00 | 0.00 | 47 | |
| 20260901014031 | 26 | 221 | 16.1 | 20.9 | 0.00 | 0.00 | 0.00 | 46 | |
| 20260901013021 | 27 | 228 | 14.5 | 19.3 | 0.00 | 0.00 | 0.00 | 45 | |
| 20260901012048 | 29 | 227 | 8.0 | 17.7 | 0.00 | 0.00 | 0.00 | 37 | |
| 20260901011036 | 28 | 105 | 4.8 | 6.4 | 0.00 | 0.00 | 0.00 | 37 | |
| 20260901010026 | 29 | 150 | 4.8 | 8.0 | 0.00 | 0.00 | 0.00 | 38 | |
| 20260901005034 | 28 | 115 | 4.8 | 8.0 | 0.00 | 0.00 | 0.00 | 37 | |
| 20260901004023 | 28 | 143 | 4.8 | 6.4 | 0.00 | 0.00 | 0.00 | 37 | |
| 20260901003031 | 28 | 154 | 4.8 | 6.4 | 0.00 | 0.00 | 0.00 | 37 | |
| 20260901002021 | 28 | 164 | 6.4 | 8.0 | 0.00 | 0.00 | 0.00 | 37 | |
| 20260901001029 | 29 | 38 | 3.2 | 6.4 | 0.00 | 0.00 | 0.00 | 38 | |
| 20260901000036 | 29 | 175 | 8.0 | 11.3 | 0.00 | 0.00 | 0.00 | 37 | |
| 20260831235026 | 29 | 214 | 4.8 | 11.3 | 0.00 | 0.00 | 0.00 | 37 | |
| 20260831234114 | 29 | 138 | 4.8 | 6.4 | 0.00 | 0.00 | 0.00 | 38 | |
| 20260831233023 | 28 | 5 | 3.2 | 6.4 | 0.00 | 0.00 | 0.00 | 40 | |
| 20260831232031 | 28 | 320 | 1.6 | 4.8 | 0.00 | 0.00 | 0.00 | 39 | |
| 20260831231040 | 28 | 184 | 6.4 | 11.3 | 0.00 | 0.00 | 0.00 | 40 | |
| 20260831230048 | 28 | 258 | 6.4 | 9.7 | 0.00 | 0.00 | 0.00 | 40 | |
| 20260831225036 | 28 | 189 | 4.8 | 8.0 | 0.00 | 0.00 | 0.00 | 41 | |
| 20260831224105 | 28 | 88 | 4.8 | 8.0 | 0.00 | 0.00 | 0.00 | 40 | |
| 20260831223033 | 28 | 223 | 6.4 | 8.0 | 0.00 | 0.00 | 0.00 | 40 | |
| 20260831222022 | 27 | 106 | 4.8 | 8.0 | 0.00 | 0.00 | 0.00 | 41 | |
| 20260831221051 | 27 | 178 | 4.8 | 6.4 | 0.00 | 0.00 | 0.00 | 42 | |
| 20260831220020 | 28 | 206 | 6.4 | 9.7 | 0.00 | 0.00 | 0.00 | 41 | |
| 20260831215046 | 28 | 195 | 6.4 | 9.7 | 0.00 | 0.00 | 0.00 | 41 | |
| 20260831214036 | 26 | 98 | 3.2 | 6.4 | 0.00 | 0.00 | 0.00 | 45 | |
| 20260831213025 | 26 | 182 | 4.8 | 8.0 | 0.00 | 0.00 | 0.00 | 45 | |
| 20260831212033 | 27 | 223 | 8.0 | 12.9 | 0.00 | 0.00 | 0.00 | 44 | |
| 20260831211022 | 26 | 189 | 4.8 | 8.0 | 0.00 | 0.00 | 0.00 | 45 | |
| 20260831210050 | 26 | 125 | 6.4 | 8.0 | 0.00 | 0.00 | 0.00 | 47 | |
| 20260831205019 | 25 | 128 | 4.8 | 8.0 | 0.00 | 0.00 | 0.00 | 48 | |
| 20260831204028 | 25 | 284 | 6.4 | 8.0 | 0.00 | 0.00 | 0.00 | 47 | |
| 20260831203035 | 25 | 226 | 8.0 | 11.3 | 0.00 | 0.00 | 0.00 | 47 | |
| 20260831202025 | 25 | 234 | 8.0 | 12.9 | 0.00 | 0.00 | 0.00 | 47 | |
| 20260831201034 | 25 | 36 | 6.4 | 9.7 | 0.00 | 0.00 | 0.00 | 49 | |
| 20260831200026 | 24 | 61 | 6.4 | 8.0 | 0.00 | 0.00 | 0.00 | 50 | |
| 20260831195030 | 24 | 224 | 6.4 | 12.9 | 0.00 | 0.00 | 0.00 | 50 | |
| 20260831194040 | 23 | 243 | 4.8 | 6.4 | 0.00 | 0.00 | 0.00 | 52 | |
| 20260831193027 | 23 | 111 | 4.8 | 6.4 | 0.00 | 0.00 | 0.00 | 53 | |
| 20260831192035 | 23 | 277 | 4.8 | 8.0 | 0.00 | 0.00 | 0.00 | 54 | |
| 20260831191026 | 22 | 339 | 4.8 | 8.0 | 0.00 | 0.00 | 0.00 | 55 | |
| 20260831190034 | 22 | 351 | 8.0 | 11.3 | 0.00 | 0.00 | 0.00 | 56 | |
| 20260831185022 | 22 | 269 | 6.4 | 8.0 | 0.00 | 0.00 | 0.00 | 56 | |
| 20260831184030 | 22 | 120 | 4.8 | 6.4 | 0.00 | 0.00 | 0.00 | 57 | |
| 20260831183019 | 22 | 98 | 4.8 | 8.0 | 0.00 | 0.00 | 0.00 | 57 | |
| 20260831182027 | 21 | 265 | 4.8 | 8.0 | 0.00 | 0.00 | 0.00 | 58 | |
| 20260831181035 | 21 | 222 | 3.2 | 6.4 | 0.00 | 0.00 | 0.00 | 58 | |
| 20260831180026 | 22 | 191 | 3.2 | 6.4 | 0.00 | 0.00 | 0.00 | 55 |